{"data":{"norad_id":64127,"epoch":"2026-05-24T14:41:04.265952Z","epoch_age_seconds":115471,"freshness":"FRESH","line1":"1 64127U 25111E   26144.61185493  .00148002  00000+0  11329-2 0  9996","line2":"2 64127  42.9991 235.8636 0002889 264.9256  95.1282 15.70912000 58588","mean_motion":15.70912,"eccentricity":0.0002889,"inclination_deg":42.9991,"raan_deg":235.8636,"arg_perigee_deg":264.9256,"mean_anomaly_deg":95.1282,"bstar":0.0011329,"rev_number":5858,"period_min":91.666496913895,"perigee_km":354.3437042013,"apogee_km":358.23485570585,"semimajor_km":6734.4262799536,"source":"CELESTRAK","updated_at":"2026-05-25T13:38:20.271666Z"}}